#timestamp,LO_Frequency,Hit 
1504778415.6,286046997.7,N
1504778435.5,286046997.4,N
1504778455.3,286046997.3,N
1504778475.1,286046995.3,P
1504778495.9,286046998.6,N
1504778515.7,286046996.5,N
1504778535.5,286046995.7,P
1504778555.4,286046998.2,N
1504778575.2,286047000.5,N
1504778595.0,286047001.2,N
1504778595.9,286047001.2,N
1504778615.8,286046997.0,N
1504778635.6,286046997.4,N
1504778655.4,286046999.2,N
1504778675.3,286046998.7,N
1504778695.1,286046998.9,N
1504778696.0,286046998.9,N
1504778715.8,286046999.5,N
1504778735.7,286046995.0,P
1504778755.5,286046998.3,N
1504778775.3,286047000.3,N
1504778795.2,286046998.3,N
1504778815.9,286046996.1,N
1504778835.7,286046998.4,N
1504778855.5,286046997.7,N
1504778875.4,286046997.3,N
1504778895.2,286046998.4,N
1504778915.0,286047000.5,N
1504778915.9,286047000.5,N
1504778935.8,286046994.9,P
1504778955.6,286046995.6,N
1504778975.5,286046994.8,P
1504778995.3,286046994.4,P
1504779015.1,286046995.6,P
1504779035.9,286046998.9,N
1504779055.7,286046996.6,N
1504779075.5,286047001.2,N
1504779095.3,286046998.8,N
1504779115.2,286046995.3,N
1504779135.0,286046999.2,N
1504779135.9,286046999.2,N
1504779155.7,286046999.4,N
1504779175.6,286047000.9,N
1504779195.4,286047004.2,N
1504779215.2,286047003.1,N
1504779235.1,286047003.9,N
1504779236.0,286047003.9,N
1504779255.8,286047001.5,N
1504779275.6,286047000.8,N
1504779295.5,286046997.9,N
1504779315.3,286046997.3,N
1504779335.1,286046995.0,N
1504779355.9,286046995.7,N
1504779375.7,286046992.4,N
1504779395.5,286046993.4,N
1504779415.3,286046997.7,N
1504779435.2,286046997.7,N
1504779455.0,286046997.6,N
1504779455.9,286046997.6,N
1504779475.7,286046996.3,N
1504779495.6,286046995.7,N
1504779515.4,286046995.5,N
1504779535.2,286046995.1,N
1504779555.1,286046995.0,N
1504779556.0,286046995.0,N
1504779575.8,286046999.1,N
1504779595.6,286046996.6,N
1504779615.5,286046997.8,N
1504779635.3,286046995.7,N
1504779655.1,286046991.7,N
1504779675.9,286046993.4,N
1504779695.7,286046997.1,N
1504779715.5,286046998.1,N
1504779735.3,286047002.8,N
1504779755.2,286047001.0,N
1504779775.0,286046998.8,N
1504779775.9,286046998.8,N
1504779795.7,286046999.2,N
1504779815.6,286046995.7,N
1504779835.4,286046994.8,N
1504779855.2,286046993.4,N
1504779875.1,286046994.9,N
1504779876.0,286046994.9,N
1504779895.8,286046997.9,N
1504779915.6,286046993.6,N
1504779935.5,286046995.3,N
1504779955.3,286046996.8,N
1504779975.1,286046996.3,N
1504779995.9,286046994.1,N
1504780015.7,286046995.9,N
1504780035.5,286046995.6,N
1504780055.4,286046996.1,N
1504780075.2,286046995.2,N
1504780095.0,286046995.3,N
1504780095.9,286046995.3,N
1504780115.7,286046993.3,N
1504780135.6,286046996.4,N
1504780155.4,286046998.0,N
1504780175.2,286046998.0,N
1504780195.1,286046996.4,N
1504780196.0,286046996.4,N
1504780215.8,286046995.0,N
1504780235.6,286046993.8,N
1504780255.5,286046998.0,N
1504780275.3,286046999.3,N
1504780295.1,286046994.9,N
1504780315.9,286046995.1,N
1504780335.7,286046997.7,N
1504780355.5,286046999.3,N
1504780375.4,286046995.2,N
1504780395.2,286046994.8,P
1504780415.0,286047000.2,N
1504780415.9,286047000.2,N
1504780435.8,286047000.9,N
1504780455.6,286047001.7,N
1504780475.4,286046999.3,N
1504780495.3,286046997.2,N
1504780515.1,286046998.1,N
1504780516.0,286046998.1,N
1504780535.8,286046998.7,N
1504780555.7,286047001.0,N
1504780575.5,286046996.6,N
1504780595.3,286047000.0,N
1504780615.1,286047002.3,N
1504780635.9,286046998.9,N
1504780655.7,286046997.9,N
1504780675.5,286046995.1,N
1504780695.4,286046996.4,N
1504780715.2,286046997.3,N
1504780735.0,286046999.1,N
1504780735.9,286046999.1,N
1504780755.8,286046997.2,N
1504780775.6,286046997.2,N
1504780795.4,286046999.0,N
1504780815.3,286046996.5,N
1504780835.1,286046999.5,N
1504780836.0,286046999.5,N
1504780855.8,286046998.4,N
1504780875.7,286046999.3,N
1504780895.5,286046998.1,N
1504780915.3,286047000.8,N
1504780935.1,286047000.9,N
1504780955.9,286046998.2,N
1504780975.7,286046998.2,N
1504780995.5,286047000.7,N
1504781015.4,286047002.4,N
1504781035.2,286047000.3,N
1504781055.0,286046999.5,N
1504781055.9,286046999.5,N
1504781075.8,286046996.5,N
1504781095.6,286047001.1,N
1504781115.4,286047000.7,N
1504781135.3,286047001.6,N
1504781155.1,286047002.2,N
1504781156.0,286047002.2,N
1504781175.8,286047000.1,N
1504781195.7,286046995.7,N
1504781215.5,286046998.7,N
1504781235.3,286047002.3,N
1504781255.1,286047004.3,N
1504781275.9,286047003.7,N
1504781295.7,286047004.3,N
1504781315.5,286046999.2,N
1504781335.4,286046996.8,N
1504781355.2,286046998.2,N
1504781375.0,286046999.9,N
1504781375.9,286046999.9,N
1504781395.8,286046995.7,N
1504781415.6,286046993.3,N
1504781435.4,286046993.7,N
1504781455.3,286046995.1,N
1504781475.1,286046996.4,N
1504781476.0,286046996.4,N
1504781495.8,286046996.2,N
1504781515.7,286046995.8,N
1504781535.5,286046995.7,N
1504781555.3,286046996.3,N
1504781575.2,286046997.7,N
1504781595.9,286047000.9,N
1504781615.7,286046997.3,N
1504781635.5,286046994.0,N
1504781655.4,286046994.4,N
1504781675.2,286046994.5,N
1504781695.0,286046992.1,N
1504781695.9,286046992.1,N
1504781715.8,286046994.2,N
1504781735.6,286046992.5,N
1504781755.4,286046990.1,N
1504781775.3,286046994.2,N
1504781795.1,286046992.3,N
1504781815.8,286046992.9,N
1504781835.7,286046992.5,N
1504781855.5,286046993.2,N
1504781875.3,286046994.7,N
1504781895.2,286046992.5,N
1504781915.9,286046992.5,P
1504781935.7,286046995.0,P
1504781955.6,286046996.1,P
1504781975.4,286046997.3,N
1504781995.2,286046999.6,N
